Temp
21 21 20 21 26 26 28 29 30 30 30 29 28 29 30 30 30 29 27 27 26 26 25 24 23 22 22 21 20 20 19 19 18 18 18 17 17 16 16 16 16 16 15 15 15 15 15 15 15
21 21 20 25 27 28 30 30 29 30 29 28 29 29 29 30 29 28 27 27 26 25 25 24 23 22 22 21 20 20 19 19 18 18 17 17 17 16 16 15 15 15 15 15 15 14 14 14 14
20 20 24 27 28 29 30 30 31 29 29 29 29 28 29 29 28 28 27 27 26 25 24 24 23 22 22 21 20 20 19 18 18 17 17 16 16 16 15 14 14 14 14 14 15 13 13 13 13
20 21 24 26 28 30 30 31 30 30 29 29 29 30 28 28 27 26 26 27 26 25 24 24 23 22 22 21 20 20 19 19 18 17 17 16 16 15 14 14 14 13 13 13 14 14 13 13 13
21 25 27 27 29 30 30 29 29 30 29 29 29 30 29 27 27 27 26 26 25 24 24 24 23 22 22 21 20 20 19 18 18 18 17 16 16 15 14 14 13 13 13 13 13 13 14 13 13
24 25 27 28 29 29 30 29 29 29 30 29 29 29 29 27 26 25 24 24 24 23 24 22 23 22 22 21 20 20 19 18 18 17 17 16 16 15 14 14 13 13 13 13 13 13 13 13 13
25 27 27 29 29 29 30 29 29 30 29 29 28 29 29 28 25 25 24 23 23 22 22 23 23 22 21 21 20 19 19 18 17 17 16 15 15 14 14 14 13 13 13 13 12 12 13 13 13
24 27 27 28 28 28 29 28 28 29 29 27 26 29 29 28 25 24 24 24 23 22 21 22 23 22 22 21 20 19 18 18 17 16 16 15 14 14 14 13 13 13 13 13 12 12 12 12 12
23 25 26 28 28 29 28 29 27 26 27 27 27 27 27 26 24 25 24 24 24 23 21 21 20 19 21 20 19 19 18 17 17 16 16 15 13 14 13 13 12 13 13 13 13 13 12 12 12
24 26 27 29 29 29 29 28 28 26 27 27 28 27 27 25 25 25 25 25 24 23 22 21 19 19 18 18 17 19 17 16 15 14 14 14 13 13 13 13 12 13 12 12 13 13 13 12 12
24 26 28 28 28 28 28 27 28 27 27 27 28 27 26 26 26 26 25 26 25 25 23 21 19 19 18 18 17 16 16 16 15 15 14 14 13 13 13 13 12 12 12 12 12 12 12 12 13
25 26 26 27 27 27 27 26 27 27 27 26 26 26 26 26 26 26 27 26 26 25 24 22 19 20 19 18 17 17 16 16 15 14 15 16 13 13 12 13 13 12 12 12 11 12 12 11 12
26 26 26 25 25 26 26 26 26 26 26 25 26 26 26 26 26 26 26 26 25 24 24 22 19 18 21 20 17 17 17 16 15 14 14 15 14 13 13 12 12 12 12 12 11 12 12 12 12
25 26 26 25 25 25 26 26 26 26 25 26 26 26 26 26 26 26 25 25 25 25 23 21 18 20 21 21 20 19 19 16 17 14 14 15 14 12 13 12 12 12 12 12 11 12 12 12 12
24 25 26 25 25 26 25 25 26 26 26 26 26 26 26 25 25 25 25 25 24 24 22 20 20 20 21 21 20 18 17 17 15 14 15 15 14 12 12 12 11 11 11 11 10 11 11 11 12
24 24 24 26 26 25 25 24 28 27 27 27 26 26 26 25 25 25 25 25 24 24 23 21 19 19 21 21 20 17 16 16 14 14 13 14 13 12 12 12 12 12 11 10 10 11 11 11 11
24 23 24 25 27 26 25 25 28 27 27 26 25 26 26 25 25 25 24 24 23 24 22 21 19 17 20 19 18 18 17 16 14 14 13 13 12 12 12 12 12 11 11 11 11 11 11 11 11
23 23 24 25 27 25 25 25 27 27 26 26 26 26 25 25 25 25 24 22 25 25 22 19 18 18 18 18 17 17 14 14 14 14 13 12 12 12 11 12 12 11 11 11 10 11 10 11 10
24 24 25 25 27 25 25 26 27 28 26 26 26 26 26 25 25 24 22 24 24 23 20 17 16 16 16 15 15 15 15 15 14 14 13 12 12 12 12 12 12 11 11 10 11 11 11 10 10
22 23 24 25 26 26 25 25 27 27 27 26 26 26 26 26 26 25 20 21 21 20 18 17 15 16 16 15 15 15 15 15 14 14 12 12 12 12 12 12 11 10 10 10 10 11 10 10 11
22 22 23 23 25 25 24 23 24 26 27 26 26 25 26 26 26 24 18 17 18 18 17 15 14 16 15 15 14 15 14 14 14 14 13 12 12 11 12 12 11 11 10 11 11 11 10 11 11
22 23 22 23 22 22 24 23 24 26 26 27 26 26 27 26 26 22 19 17 16 15 15 14 14 16 16 16 14 14 15 16 15 14 13 12 11 11 12 12 11 10 11 11 11 10 10 11 11
23 24 23 22 22 22 23 22 24 25 25 26 27 26 27 26 24 21 19 17 16 15 15 15 16 16 15 15 14 14 14 14 13 13 12 12 12 12 12 11 11 10 12 12 11 11 11 11 12
23 23 22 22 22 21 22 22 23 24 25 26 28 27 27 24 21 19 18 17 16 16 15 14 14 13 14 13 14 14 13 13 13 13 12 12 12 12 11 11 11 12 11 10 11 11 10 11 12
22 21 20 20 20 20 23 22 23 24 26 26 28 27 25 22 20 18 17 17 16 16 15 15 14 13 13 13 13 13 12 12 12 12 12 12 12 12 11 11 11 11 11 10 11 11 11 12 12
21 22 22 20 21 22 23 22 24 25 26 26 26 27 25 22 20 19 18 17 17 16 15 15 14 14 13 13 13 12 12 13 13 12 12 12 12 11 11 11 11 11 11 11 11 12 12 12 12
21 22 24 23 24 23 25 24 24 24 26 27 27 26 24 22 20 19 18 17 17 16 15 15 15 14 14 14 13 13 12 12 13 12 12 13 12 11 11 11 11 11 11 11 11 12 11 12 12
23 23 21 23 21 21 24 24 23 26 27 27 27 27 25 21 20 19 18 17 17 16 15 15 15 14 14 14 13 13 13 12 12 12 12 12 12 12 11 11 11 11 11 11 11 12 11 12 12
22 22 23 23 23 22 22 24 25 25 27 27 28 27 23 21 20 19 18 17 17 16 16 15 15 14 14 14 13 13 13 12 12 12 12 12 12 11 12 12 11 11 11 11 12 12 11 11 12
23 23 22 22 21 23 24 24 24 26 26 28 29 25 22 21 20 19 19 18 17 17 16 15 15 15 14 14 13 13 13 12 12 12 12 12 12 12 12 12 11 12 11 11 11 12 12 11 11
Height
1533 1534 1536 1539 1536 1530 1516 1508 1504 1506 1508 1510 1511 1509 1506 1505 1505 1511 1507 1507 1509 1510 1512 1514 1516 1517 1519 1521 1523 1523 1524 1524 1524 1525 1524 1524 1524 1524 1524 1524 1525 1526 1525 1525 1525 1525 1525 1524 1525
1533 1535 1538 1533 1528 1518 1507 1503 1508 1506 1509 1509 1509 1508 1508 1505 1506 1507 1507 1506 1507 1509 1511 1512 1514 1516 1518 1520 1521 1522 1523 1523 1523 1523 1523 1523 1523 1523 1523 1523 1522 1523 1524 1524 1523 1523 1523 1523 1523
1535 1537 1533 1521 1513 1510 1501 1502 1500 1506 1508 1508 1505 1507 1506 1504 1506 1506 1505 1505 1506 1508 1509 1510 1512 1514 1516 1518 1520 1522 1522 1522 1522 1522 1521 1521 1520 1520 1521 1520 1519 1519 1520 1521 1521 1522 1522 1523 1522
1537 1538 1533 1522 1510 1502 1501 1499 1503 1504 1505 1506 1504 1503 1505 1505 1505 1506 1504 1504 1505 1506 1507 1509 1510 1512 1515 1517 1518 1520 1520 1520 1520 1519 1519 1519 1518 1518 1518 1519 1518 1518 1518 1519 1519 1520 1520 1520 1521
1535 1529 1520 1516 1506 1501 1503 1502 1503 1503 1503 1503 1504 1500 1502 1504 1504 1503 1503 1503 1504 1504 1505 1507 1509 1511 1512 1514 1515 1517 1518 1518 1519 1518 1518 1517 1516 1515 1516 1516 1516 1516 1516 1516 1516 1517 1518 1519 1518
1528 1524 1518 1510 1499 1500 1502 1502 1502 1501 1500 1502 1503 1502 1501 1504 1504 1504 1503 1503 1504 1503 1503 1505 1506 1508 1510 1511 1513 1514 1515 1516 1516 1516 1515 1515 1514 1513 1513 1513 1513 1513 1513 1513 1513 1514 1515 1515 1516
1523 1516 1510 1501 1500 1502 1499 1500 1499 1496 1499 1500 1504 1501 1500 1501 1502 1502 1502 1503 1504 1504 1502 1502 1503 1505 1507 1508 1510 1512 1514 1514 1514 1513 1513 1512 1512 1511 1510 1510 1509 1509 1509 1509 1510 1510 1511 1512 1512
1521 1515 1510 1501 1504 1501 1498 1501 1500 1498 1496 1504 1504 1498 1497 1499 1499 1499 1500 1501 1499 1500 1500 1500 1500 1500 1502 1504 1506 1509 1511 1512 1511 1511 1510 1510 1509 1507 1507 1506 1506 1506 1506 1505 1505 1505 1506 1507 1507
1518 1515 1508 1500 1499 1496 1499 1498 1502 1502 1501 1501 1499 1499 1500 1500 1498 1498 1498 1498 1498 1497 1495 1497 1497 1498 1498 1500 1502 1506 1508 1508 1509 1508 1507 1507 1506 1507 1506 1505 1503 1503 1502 1502 1501 1501 1501 1502 1503
1513 1502 1499 1494 1492 1494 1492 1497 1496 1500 1499 1497 1493 1494 1496 1497 1496 1495 1494 1493 1493 1493 1494 1493 1494 1496 1496 1498 1500 1500 1504 1505 1506 1506 1506 1505 1504 1504 1502 1501 1499 1498 1498 1497 1497 1496 1497 1498 1501
1503 1492 1490 1493 1493 1495 1493 1495 1492 1492 1493 1493 1490 1491 1493 1493 1491 1490 1488 1487 1486 1486 1488 1487 1487 1489 1493 1494 1496 1499 1502 1503 1503 1502 1502 1501 1501 1501 1499 1499 1497 1496 1495 1496 1496 1496 1495 1497 1498
1496 1489 1492 1491 1489 1491 1492 1491 1488 1487 1488 1489 1488 1489 1486 1484 1484 1482 1479 1479 1479 1479 1480 1482 1482 1482 1485 1492 1490 1494 1497 1498 1498 1499 1497 1497 1497 1496 1495 1495 1495 1493 1494 1494 1493 1493 1493 1493 1494
1486 1488 1489 1489 1492 1491 1490 1487 1483 1481 1484 1484 1484 1483 1480 1479 1477 1474 1472 1471 1470 1470 1473 1475 1476 1475 1479 1484 1487 1489 1491 1493 1494 1493 1493 1493 1493 1493 1492 1492 1490 1489 1490 1490 1489 1490 1490 1490 1491
1483 1483 1484 1486 1484 1487 1485 1479 1480 1477 1479 1477 1478 1476 1473 1471 1469 1465 1465 1465 1463 1462 1465 1468 1467 1468 1472 1477 1480 1483 1486 1488 1488 1489 1489 1488 1488 1489 1489 1487 1486 1486 1486 1487 1485 1487 1488 1488 1488
1478 1480 1476 1478 1479 1479 1481 1471 1470 1473 1473 1470 1471 1469 1467 1465 1463 1460 1458 1459 1457 1457 1456 1457 1457 1461 1466 1471 1476 1481 1483 1484 1484 1485 1483 1483 1483 1484 1483 1483 1482 1481 1481 1481 1481 1482 1483 1484 1485
1474 1475 1472 1467 1471 1473 1478 1464 1459 1464 1464 1463 1465 1463 1461 1458 1455 1454 1452 1452 1450 1449 1449 1448 1451 1454 1458 1463 1469 1474 1478 1480 1481 1480 1480 1479 1479 1478 1478 1477 1476 1476 1476 1476 1478 1479 1479 1480 1481
1463 1461 1457 1463 1460 1464 1468 1454 1454 1456 1458 1460 1459 1456 1454 1450 1447 1446 1446 1445 1442 1441 1442 1442 1447 1450 1454 1459 1463 1469 1472 1475 1477 1476 1476 1476 1475 1474 1473 1473 1472 1472 1472 1473 1474 1476 1477 1477 1477
1452 1456 1456 1453 1452 1463 1460 1449 1449 1452 1454 1452 1451 1449 1447 1444 1440 1439 1439 1436 1434 1433 1434 1438 1443 1447 1451 1454 1460 1466 1469 1472 1473 1473 1472 1472 1471 1470 1469 1468 1468 1468 1469 1469 1471 1472 1471 1474 1474
1447 1445 1443 1448 1447 1452 1449 1441 1440 1443 1448 1445 1443 1443 1440 1436 1434 1434 1430 1428 1427 1428 1429 1434 1440 1442 1448 1453 1459 1463 1467 1470 1470 1469 1468 1467 1467 1466 1465 1464 1464 1464 1465 1466 1468 1467 1468 1469 1471
1449 1446 1440 1440 1442 1442 1447 1440 1435 1436 1436 1439 1436 1434 1433 1430 1429 1429 1424 1422 1423 1424 1427 1431 1437 1442 1448 1453 1458 1463 1465 1467 1467 1466 1464 1463 1462 1461 1461 1460 1460 1461 1462 1463 1464 1464 1466 1467 1468
1438 1442 1446 1445 1440 1439 1443 1441 1434 1431 1429 1427 1427 1426 1426 1424 1423 1424 1421 1421 1421 1422 1426 1431 1436 1442 1448 1452 1455 1458 1460 1462 1463 1463 1462 1460 1459 1458 1458 1457 1457 1457 1459 1460 1460 1461 1463 1464 1466
1428 1437 1444 1445 1450 1447 1440 1437 1423 1420 1416 1418 1417 1418 1416 1416 1418 1419 1419 1420 1420 1422 1426 1431 1437 1443 1447 1451 1455 1457 1460 1461 1461 1460 1459 1457 1456 1455 1454 1453 1454 1455 1457 1457 1457 1459 1461 1462 1465
1412 1428 1435 1440 1444 1442 1436 1439 1413 1414 1415 1409 1408 1410 1409 1410 1413 1415 1417 1418 1420 1423 1427 1432 1437 1443 1446 1451 1454 1456 1458 1459 1458 1457 1455 1454 1452 1451 1452 1452 1453 1454 1454 1455 1456 1458 1459 1462 1464
1421 1428 1431 1433 1436 1438 1431 1434 1421 1409 1403 1398 1398 1400 1400 1408 1410 1413 1415 1417 1421 1425 1429 1433 1438 1442 1447 1450 1452 1454 1455 1456 1457 1456 1454 1452 1449 1450 1450 1452 1451 1452 1452 1454 1456 1458 1459 1461 1463
1415 1426 1434 1442 1437 1428 1418 1421 1407 1398 1389 1392 1392 1395 1399 1405 1407 1410 1412 1416 1421 1425 1429 1435 1439 1443 1447 1450 1452 1452 1453 1454 1454 1453 1451 1449 1448 1448 1450 1450 1451 1451 1452 1454 1457 1458 1459 1461 1463
1398 1401 1401 1426 1422 1412 1404 1410 1391 1386 1385 1387 1389 1392 1396 1403 1406 1408 1411 1416 1420 1426 1430 1435 1440 1444 1447 1450 1452 1452 1452 1454 1453 1451 1449 1449 1447 1448 1449 1450 1451 1451 1453 1455 1456 1458 1460 1461 1463
1390 1391 1385 1393 1391 1400 1386 1388 1384 1385 1377 1377 1380 1386 1393 1400 1403 1406 1411 1416 1421 1426 1431 1435 1441 1444 1447 1450 1450 1451 1451 1451 1451 1448 1447 1447 1447 1449 1450 1450 1451 1452 1453 1455 1457 1459 1461 1462 1463
1375 1384 1398 1390 1408 1412 1393 1389 1390 1372 1368 1370 1374 1379 1387 1396 1401 1406 1410 1416 1422 1427 1431 1436 1441 1444 1446 1448 1449 1450 1450 1450 1449 1447 1448 1446 1447 1450 1451 1451 1452 1453 1454 1456 1457 1459 1460 1463 1464
1368 1374 1378 1380 1383 1398 1400 1387 1371 1374 1365 1367 1369 1376 1385 1393 1398 1404 1410 1416 1422 1426 1431 1436 1441 1443 1445 1447 1448 1449 1449 1449 1448 1447 1447 1446 1447 1450 1452 1453 1453 1454 1455 1456 1458 1459 1461 1463 1464
1361 1365 1374 1381 1395 1383 1378 1382 1368 1365 1366 1364 1365 1375 1384 1391 1397 1403 1409 1415 1420 1425 1431 1436 1440 1442 1445 1446 1447 1448 1448 1448 1447 1447 1447 1446 1447 1450 1452 1454 1455 1456 1457 1457 1459 1461 1463 1464 1465
Wind_Speed
13 14 10 4 5 5 11 7 3 6 7 2 5 6 6 10 8 6 1 10 11 13 12 14 15 14 15 13 9 9 7 4 4 5 5 7 9 10 11 11 11 13 14 14 12 12 13 11 9
14 14 5 4 7 9 9 4 9 2 4 7 7 10 10 11 8 8 5 12 12 12 13 13 15 16 15 13 11 9 7 4 4 5 7 8 9 11 12 11 11 12 13 14 15 13 10 11 10
14 8 8 5 8 10 2 10 5 2 2 2 4 4 2 3 4 3 5 13 12 13 13 12 15 17 15 14 12 11 8 6 5 6 8 10 11 11 11 12 13 13 12 12 12 12 12 11 10
10 6 7 9 11 6 7 6 3 5 5 2 4 6 4 5 2 3 6 13 13 15 13 13 17 18 17 15 13 12 10 8 8 8 10 12 12 11 11 13 14 15 15 15 13 12 12 14 14
9 7 9 11 13 8 7 9 8 9 4 5 2 4 4 3 6 10 8 13 16 17 16 15 17 19 18 17 16 15 13 12 11 11 12 13 13 11 12 16 16 17 17 18 17 16 17 18 17
12 8 10 12 14 8 8 10 10 13 10 5 4 6 3 5 9 8 7 13 16 17 17 17 18 20 19 19 19 19 18 16 14 14 13 14 13 12 15 17 17 16 18 19 19 18 18 20 19
17 9 14 15 12 10 12 8 11 6 7 6 4 9 4 2 11 15 8 10 16 16 19 19 18 20 22 21 22 23 21 19 17 16 15 16 14 14 16 18 17 17 17 19 20 22 23 23 22
15 10 18 13 13 12 1 8 1 4 3 4 5 7 8 11 13 13 9 11 17 20 20 22 21 22 23 25 28 26 23 21 19 18 17 18 18 17 18 18 17 19 19 19 19 19 21 23 23
15 10 14 19 15 12 6 10 5 5 11 14 12 15 15 14 13 13 12 13 17 22 24 23 23 23 24 25 25 27 25 23 22 21 19 19 16 15 16 16 20 21 20 19 18 18 18 19 22
18 15 22 21 14 16 17 12 13 11 15 21 21 18 15 14 18 18 17 18 19 24 25 26 25 24 23 21 21 24 23 21 18 16 14 15 15 15 17 18 23 21 21 20 18 18 17 15 12
25 25 21 26 23 23 22 23 21 20 15 25 23 21 23 23 23 23 23 22 21 22 28 26 30 28 25 22 19 18 17 16 16 17 17 15 15 14 15 14 14 14 16 13 13 13 12 12 15
30 30 28 30 33 24 20 29 25 24 24 30 26 25 27 31 29 28 28 27 23 21 26 27 29 33 30 22 21 19 18 16 15 14 17 18 15 15 14 14 15 16 15 15 14 12 12 13 14
31 25 32 28 32 30 26 27 31 30 28 31 26 25 28 30 32 33 32 28 24 22 22 27 29 31 32 31 21 21 21 18 15 14 15 17 15 14 14 15 16 17 16 15 13 12 13 12 12
30 32 35 34 32 28 25 30 31 29 31 30 28 27 27 28 29 29 27 27 22 22 19 25 31 33 33 31 30 28 25 18 19 13 13 18 16 14 14 16 16 17 16 16 16 12 11 12 12
32 25 24 24 27 26 26 26 26 27 30 28 24 25 27 28 28 25 24 24 22 21 20 26 31 31 32 30 29 26 21 22 14 12 17 18 19 16 16 16 17 18 18 18 17 13 12 12 13
21 25 24 25 23 27 20 28 23 23 25 23 21 25 28 30 28 25 26 27 23 24 23 28 24 30 32 31 29 25 19 18 13 13 13 17 18 17 18 18 19 19 18 18 16 13 12 13 15
25 26 32 25 22 18 21 32 23 22 22 18 23 28 31 31 28 24 23 22 19 23 23 25 22 27 29 30 27 24 22 17 13 12 12 14 15 17 19 18 17 18 16 16 14 12 13 13 14
25 26 27 28 21 15 24 30 21 25 24 27 25 31 28 30 30 23 21 20 23 20 19 17 20 25 28 26 24 19 14 12 12 11 12 14 15 16 18 18 17 15 16 17 13 14 13 12 13
26 30 30 23 22 21 27 29 24 22 23 29 28 30 32 30 25 18 20 16 15 15 13 15 20 25 25 21 18 14 12 11 10 10 12 14 14 17 17 18 15 15 16 13 13 14 13 14 14
29 29 30 24 23 23 24 29 26 24 24 31 29 32 28 27 20 15 13 8 9 8 10 15 20 23 23 18 14 11 10 9 8 9 11 11 12 15 17 16 15 13 14 13 14 14 11 14 16
31 30 25 27 20 22 24 29 31 27 31 30 24 24 31 28 21 12 6 6 7 9 13 17 20 23 21 16 13 11 8 7 6 8 7 8 9 10 12 12 13 12 12 14 14 14 14 14 16
31 25 25 25 21 23 22 23 28 22 22 22 29 28 27 21 13 9 8 9 11 13 16 20 21 23 20 15 10 9 7 7 7 6 7 8 10 9 9 8 9 11 13 13 12 10 12 12 13
33 22 23 24 23 25 28 19 23 19 21 25 20 24 24 13 10 11 10 12 14 18 21 21 22 19 15 13 9 7 7 6 5 5 7 8 10 8 7 6 8 12 11 10 8 10 12 10 11
22 17 18 18 17 21 24 21 24 24 27 25 22 18 19 10 8 11 13 17 19 21 21 21 19 15 13 11 9 8 7 5 4 6 8 6 7 6 6 7 8 7 6 6 9 11 10 9 9
27 21 11 13 14 17 19 19 21 24 17 25 18 11 11 11 12 16 20 21 23 23 21 19 17 14 13 10 8 6 5 4 4 5 5 4 3 6 7 7 7 7 7 8 10 10 8 9 10
30 27 14 19 15 15 20 11 14 10 22 32 28 14 10 13 15 19 22 24 24 22 21 18 16 14 12 10 7 6 5 3 3 4 1 0 4 8 8 8 7 8 8 9 10 10 8 7 7
29 24 24 11 10 7 13 14 16 17 21 16 17 20 15 12 16 21 24 23 23 22 20 17 15 13 12 10 7 6 5 2 3 3 1 3 3 8 7 8 7 8 8 9 8 7 8 8 9
28 24 21 15 18 16 12 10 8 8 11 13 13 15 17 16 19 23 24 24 22 20 18 15 13 13 12 10 7 5 4 2 2 2 2 3 6 10 8 7 7 8 9 9 10 8 8 8 10
18 23 19 18 13 14 7 8 9 17 10 12 12 16 18 21 24 26 25 24 21 20 17 15 14 13 13 10 8 6 4 2 2 1 2 3 7 10 9 7 7 8 7 8 8 9 9 9 8
27 21 26 13 20 11 6 4 1 7 2 10 7 12 19 23 25 26 26 25 23 20 18 16 15 13 12 9 8 5 3 2 1 3 3 4 8 9 10 9 7 7 7 7 6 6 6 7 7
Wind_Direction
153 150 150 175 226 236 234 187 38 174 195 259 288 243 260 307 309 341 297 185 171 181 189 184 194 198 205 208 211 212 219 251 277 286 290 288 283 273 268 261 250 250 259 265 263 262 265 267 257
160 152 175 222 252 225 195 155 192 170 326 293 254 250 251 269 267 274 247 205 182 181 186 182 187 194 202 204 206 208 221 244 281 293 300 300 292 282 277 270 271 268 261 264 271 263 265 270 274
163 178 236 231 238 254 229 186 134 159 305 235 224 253 275 253 251 256 252 207 195 188 186 180 184 186 193 199 203 212 220 241 268 294 306 309 299 287 272 273 279 281 277 276 271 269 259 266 273
171 200 241 245 233 235 259 174 196 255 197 242 301 251 217 260 295 249 254 213 209 199 191 190 193 191 194 199 205 214 226 245 268 291 302 309 305 290 266 275 277 275 274 280 277 269 256 257 263
193 235 246 239 246 247 227 261 283 261 255 270 289 244 264 358 334 292 265 230 210 202 198 200 200 198 200 207 213 222 230 243 260 275 290 305 307 284 273 270 275 273 270 266 263 268 252 254 265
205 256 239 238 237 234 245 252 256 256 238 237 232 267 261 27 11 330 260 231 212 205 207 204 208 206 210 216 223 229 234 240 252 263 277 291 297 280 275 276 275 273 269 265 261 258 254 251 252
243 217 251 264 273 251 254 236 221 237 210 204 308 266 279 3 352 346 315 244 223 218 214 212 215 212 217 222 228 233 239 244 253 265 273 284 291 279 271 273 276 277 277 274 262 255 251 252 252
234 256 255 248 259 267 176 218 273 235 283 281 272 260 251 324 317 331 304 274 235 223 221 218 220 218 220 225 229 234 240 246 256 266 274 283 289 278 271 272 282 277 280 280 271 261 253 248 250
221 235 246 245 247 246 175 250 182 273 275 283 261 270 280 296 308 312 299 279 253 236 224 221 221 217 220 221 231 232 237 244 253 262 270 277 273 268 272 273 265 273 283 279 276 270 260 252 250
218 227 241 253 263 261 270 261 280 277 278 280 275 264 269 280 293 290 281 277 263 248 237 224 222 219 213 211 215 232 234 239 247 253 258 270 265 263 258 257 269 277 278 276 281 277 264 251 251
231 246 241 245 250 263 287 278 276 274 267 269 289 300 288 283 282 281 277 272 272 259 242 229 230 220 214 210 213 218 221 230 240 251 261 267 263 265 268 272 273 280 286 276 278 280 279 255 252
242 249 244 259 260 257 262 274 278 267 272 275 290 291 291 291 288 281 273 268 274 267 243 229 224 227 221 212 214 215 218 227 238 253 270 273 264 265 263 262 263 263 264 259 266 266 263 255 247
243 249 252 252 263 269 264 265 269 275 277 277 290 290 288 285 281 279 273 269 268 265 244 228 224 226 224 219 215 215 222 235 240 251 264 267 255 256 260 260 258 256 256 252 252 258 259 258 256
250 250 249 254 255 260 262 264 269 271 275 282 287 290 292 290 285 280 272 264 269 275 245 224 224 229 224 226 227 231 234 231 249 245 251 266 256 254 256 263 262 258 252 252 244 249 247 259 250
253 253 254 245 250 253 263 264 255 267 272 275 279 289 290 288 285 279 271 265 272 273 260 228 235 227 225 224 229 228 232 237 237 245 260 265 264 257 254 258 257 257 254 248 245 239 245 246 248
242 239 246 233 229 243 239 265 264 270 271 274 282 291 293 292 288 281 268 267 270 275 260 244 231 224 224 222 224 221 225 240 238 245 253 265 263 261 257 263 266 265 257 248 239 235 239 243 243
226 234 231 242 238 242 231 257 255 257 270 273 281 293 298 293 285 280 275 268 269 273 246 246 222 216 217 216 213 217 228 237 241 248 253 258 255 257 258 264 269 253 246 239 228 231 239 241 233
222 229 245 257 234 224 241 251 255 257 270 276 287 294 293 293 283 284 275 274 274 262 244 230 214 210 206 203 203 210 218 230 240 248 256 255 259 256 257 266 262 257 237 233 229 236 238 237 229
249 245 247 237 243 244 249 256 257 261 271 276 286 286 290 290 286 279 277 270 256 239 217 201 196 197 185 186 191 200 216 231 238 251 258 256 259 255 258 261 263 251 236 228 233 235 238 233 205
239 245 246 249 239 236 251 267 274 270 272 278 280 283 281 285 284 276 272 254 230 215 192 184 185 188 181 182 183 195 205 223 236 248 257 261 254 254 254 259 252 228 221 226 229 235 228 214 197
227 234 240 251 255 252 258 266 267 266 260 273 268 264 276 277 276 261 235 206 187 177 175 173 176 175 176 179 188 200 211 232 251 263 273 258 249 254 258 253 243 232 216 226 233 234 219 202 195
229 219 240 255 253 251 247 268 264 272 269 265 268 277 270 258 252 229 201 180 164 160 157 159 164 175 186 187 182 185 205 224 233 249 255 251 250 249 259 246 230 211 223 228 232 223 206 198 189
236 228 234 241 249 260 249 256 265 261 266 265 261 263 263 243 234 204 185 170 155 152 150 155 166 173 179 179 173 185 196 223 240 260 275 260 258 252 232 205 205 213 224 224 201 194 192 195 192
223 218 226 237 245 245 245 252 259 259 265 268 267 265 238 201 178 172 162 150 149 147 149 156 164 165 169 170 180 186 199 214 245 275 276 261 261 223 197 200 208 203 193 184 177 177 190 186 195
202 194 202 220 225 246 242 249 254 254 264 246 259 254 180 179 163 161 153 152 151 152 154 159 160 162 167 171 174 189 204 216 255 284 282 270 221 180 182 181 178 175 163 156 168 176 194 186 201
193 190 203 215 231 242 218 252 240 256 248 251 255 240 173 173 169 159 155 153 153 156 158 159 163 166 172 173 179 188 196 231 271 282 267 165 221 166 175 175 174 162 159 161 169 170 169 178 186
190 208 212 239 230 270 221 228 271 257 255 248 238 219 190 179 163 158 155 155 157 159 160 160 165 171 174 177 185 182 197 213 262 263 259 181 170 160 169 167 159 162 166 177 186 183 168 161 144
196 194 197 219 234 228 242 240 240 256 235 224 215 198 190 174 163 160 157 157 160 160 157 160 167 172 176 178 179 187 214 201 286 257 164 149 155 164 166 159 147 155 172 185 175 175 166 160 159
191 197 212 209 227 209 228 224 201 238 244 193 191 183 173 170 164 161 159 160 160 159 159 163 166 171 175 176 181 185 204 215 298 191 147 168 157 166 167 159 152 161 157 170 166 164 157 162 163
201 203 199 197 198 247 216 229 290 242 303 208 210 157 164 165 162 161 161 162 161 160 164 168 169 172 174 176 178 183 194 206 275 144 152 153 150 159 168 163 162 162 169 171 159 150 157 162 164